Weather History for LKCV - October, 2011

Change the Weather History Date:

Thursday, October 6, 2011

  Actual Average Record
Temperature  
Mean Temperature 66 °F -  
Max Temperature 71 °F - - ()
Min Temperature 60 °F - - ()
Growing Degree Days 16 (Base 50)    
Moisture  
Dew Point 52 °F    
Average Humidity 64    
Maximum Humidity 77    
Minimum Humidity 43    
Precipitation  
Precipitation 0.00 in - - ()
Sea Level Pressure  
Sea Level Pressure 29.94 in    
Wind  
Wind Speed 8 mph ()    
Max Wind Speed 15 mph    
Max Gust Speed 22 mph    
Visibility 6.2 miles    
Events      
T = Trace of Precipitation, MM = Missing Value Source: Averaged Metar Reports

Daily Weather History Graph

Daily Weather History Graph

Search for Another Location

Airport or City:

Trip Planner

Search our weather history database for the weather conditions in past years. The results will help you decide how hot, cold, wet, or windy it might be!

Date:

Astronomy

Oct. 06, 2011 Rise Set
Actual Time 7:05 AM CEST 6:27 PM CEST
Civil Twilight 6:33 AM CEST 6:59 PM CEST
Nautical Twilight 5:55 AM CEST 7:36 PM CEST
Astronomical Twilight 5:17 AM CEST 8:14 PM CEST
Moon 3:57 PM CEST (10/6) 1:05 AM CEST (10/6)
Length of Visible Light 12h 26m
Length of Day
11h 21m
Waxing Gibbous, 73% of the Moon is Illuminated
Oct 6
Waxing Gibbous
Oct 12
Full
Oct 20
Last Quarter
Oct 26
New
Nov 2
First Quarter

Hourly Weather History & Observations

Time (CEST) Temp. Dew Point Humidity Pressure Visibility Wind Dir Wind Speed Gust Speed Precip Events Conditions
12:00 AM 62.6 °F 53.6 °F 72% 30.12 in - WSW 8.1 mph - N/A   Clear
1:00 AM 62.6 °F 53.6 °F 72% 30.12 in - SW 6.9 mph - N/A   Clear
2:00 AM 60.8 °F 53.6 °F 77% 30.09 in - WSW 6.9 mph - N/A   Clear
3:00 AM 60.8 °F 53.6 °F 77% 30.09 in - SW 8.1 mph - N/A   Clear
4:00 AM 60.8 °F 53.6 °F 77% 30.09 in - WSW 8.1 mph - N/A   Clear
5:00 AM 60.8 °F 53.6 °F 77% 30.06 in - SW 8.1 mph - N/A   Clear
6:00 AM 60.8 °F 53.6 °F 77% 30.04 in - SW 9.2 mph - N/A   Clear
7:00 AM 60.8 °F 53.6 °F 77% 30.04 in - SSW 11.5 mph - N/A   Clear
8:00 AM 60.8 °F 53.6 °F 77% 30.04 in - SW 9.2 mph - N/A   Clear
9:00 AM 60.8 °F 53.6 °F 77% 30.04 in - SW 6.9 mph - N/A   Clear
10:00 AM 62.6 °F 51.8 °F 68% 30.04 in - SSW 6.9 mph - N/A   Clear
11:00 AM 64.4 °F 50.0 °F 59% 30.01 in 6.2 mi SW 11.5 mph 21.9 mph N/A   Mostly Cloudy
12:00 PM 66.2 °F 50.0 °F 56% 29.98 in 6.2 mi SW 11.5 mph - N/A   Mostly Cloudy
1:00 PM 66.2 °F 50.0 °F 56% 29.95 in 6.2 mi SW 13.8 mph - N/A   Mostly Cloudy
2:00 PM 69.8 °F 50.0 °F 49% 29.89 in - SSW 13.8 mph - N/A   Clear
3:00 PM 71.6 °F 50.0 °F 46% 29.86 in - SW 15.0 mph - N/A   Clear
4:00 PM 71.6 °F 48.2 °F 43% 29.83 in - SW 12.7 mph - N/A   Clear
5:00 PM 71.6 °F 50.0 °F 46% 29.83 in - SW 10.4 mph - N/A   Clear
6:00 PM 68.0 °F 50.0 °F 52% 29.80 in - SSW 6.9 mph - N/A   Clear
7:00 PM 68.0 °F 50.0 °F 52% 29.77 in - South 4.6 mph - N/A   Clear
8:00 PM 66.2 °F 50.0 °F 56% 29.77 in - South 4.6 mph - N/A   Clear
9:00 PM 64.4 °F 51.8 °F 64% 29.74 in - SSW 5.8 mph - N/A   Clear
10:02 PM 62.6 °F 50.0 °F 63% 29.74 in - SSW 8.1 mph - N/A   Clear
11:00 PM 62.6 °F 51.8 °F 68% 29.71 in - South 8.1 mph - N/A   Clear